{"data":{"norad_id":54834,"intl_designator":"2022-177Q","name":"STARLINK-5386","alt_names":[],"object_type":"PAYLOAD","status":"ACTIVE","operator":null,"country":"US","launch_date":"2022-12-28","launch_site_code":"AFETR","launch_vehicle":null,"mission":null,"orbit_class":"UNKNOWN","rcs_meters":null,"size_class":null,"mass_kg":null,"dimensions":null,"purposes":["comms"],"wikipedia_slug":null,"has_3d_model":false,"image_url":null,"decayed_at":null,"tle_current":{"epoch":"2026-09-19T23:38:47.674464Z","epoch_age_seconds":137790,"freshness":"FRESH","line1":"1 54834U 22177Q   26262.98527401 -.00000044  00000+0  79438-5 0  9991","line2":"2 54834  43.0040 119.1809 0001233 264.3619  95.7092 15.27576788206642","mean_motion":15.27576788,"eccentricity":0.0001233,"inclination_deg":43.004,"raan_deg":119.1809,"arg_perigee_deg":264.3619,"mean_anomaly_deg":95.7092,"bstar":7.9438e-6,"rev_number":20664,"period_min":94.26694692614,"perigee_km":482.21272850849,"apogee_km":483.90469937155,"semimajor_km":6861.19571394,"source":"CELESTRAK","updated_at":"2026-09-21T09:00:33.134685Z"}}}